Regional Weather Roundup
Issued by NWS

Home | Current Version | Previous Version | Graphics & Text | Print | Product List | Glossary On
Versions: 1 2 3 4 5 6 7 8 9 10 11 12 13 14 15 16 17 18 19 20 21 22 23 24 25 26 27 28 29 30 31 32 33 34 35 36 37 38 39 40 41 42 43 44 45 46 47 48 49 50
000
ASUS45 KSLC 211810
RWRUT

UTAH REGIONAL WEATHER ROUNDUP
NATIONAL WEATHER SERVICE SALT LAKE CITY UT
1200 PM MDT SAT APR 21 2018

UTZ001>011-023>025-211900-

NORTHERN UTAH

CITY           SKY/WX    TMP DP  RH WIND       PRES   REMARKS
BRIGHAM CITY   SUNNY     59  33  36 CALM      30.22R
HILL AFB       SUNNY     58  29  32 NW8       30.21R
LOGAN          SUNNY     65  33  30 VRB5      30.20R
OGDEN          SUNNY     60  30  32 MISG      30.20R
SALT LAKE CITY MOSUNNY   63  30  28 CALM      30.19S
TOOELE VALLEY  SUNNY     61  32  33 N10       30.21R
WENDOVER       SUNNY     63  20  19 SE6       30.21S
HEBER CITY       N/A     59  32  36 CALM      30.18F
WEST JORDAN    SUNNY     59  37  44 W5        30.21S

$$

UTZ011>015-024>027-211900-

CENTRAL/NORTHEAST UTAH

CITY           SKY/WX    TMP DP  RH WIND       PRES   REMARKS
PROVO AIRPORT  MOSUNNY   56  40  55 W7        30.22
MOAB/CANYONLAN MOSUNNY   60  36  40 VRB6      30.14F
DELTA          SUNNY     55  32  41 SW3       30.23F
PRICE          SUNNY     57  38  48 E8        30.17F
RICHFIELD      SUNNY     57  32  38 NE5       30.23S
ROOSEVELT      SUNNY     55  37  50 E6        30.20S
VERNAL         PTSUNNY   54  41  61 MISG      30.18S

$$

UTZ013>016-019>022-027-211900-

SOUTHERN UTAH

CITY           SKY/WX    TMP DP  RH WIND       PRES   REMARKS
BRYCE CANYON   SUNNY     54  25  32 NW13G21   30.27S
CEDAR CITY     SUNNY     58  33  39 NE8       30.23F
MILFORD        SUNNY     59  31  34 N8        30.23F
ST GEORGE      CLEAR     65  36  34 W3        30.17F
HANKSVILLE     SUNNY     61  34  36 SE3       30.18F
KANAB          SUNNY     63  27  25 S2        30.23F
BLANDING         N/A     59  28  30 S8        30.21F

$$

REGIONAL REPORTS     COLORADO/ARIZONA

CITY           SKY/WX    TMP DP  RH WIND       PRES   REMARKS
CRAIG, CO      CLOUDY    43  35  73 SW6       30.21R
GRAND JUNCTION PTSUNNY   54  36  50 SE7       30.19S
RIFLE, CO      CLOUDY    45  39  79 VRB3      30.21R
MONTROSE, CO   CLOUDY    47  36  65 CALM      30.23F
CORTEZ, CO     SUNNY     57  29  34 N16G28    30.14F
COLORADO CITY    N/A     64  32  29 NW9       30.23S
PAGE, AZ       SUNNY     61  35  37 NE6       30.17F
GRAND CANYON   SUNNY     58  26  29 VRB5      30.24F
KINGMAN, AZ    SUNNY     75  27  17 NE9       30.15F
FLAGSTAFF, AZ  SUNNY     56  25  30 SE6       30.24S

$$

REGIONAL REPORTS    NEVADA/IDAHO/WYOMING

CITY           SKY/WX    TMP DP  RH WIND       PRES   REMARKS
LAS VEGAS, NV  SUNNY     75  28  17 NE5       30.13F
ELY, NY        SUNNY     56  14  19 SE7       30.26S
ELKO, NV       SUNNY     62  30  29 SW10      30.24F
POCATELLO, ID  MOSUNNY   63  28  26 W17       30.18F
BURLEY, ID     SUNNY     64  27  24 W14G24    30.16F
FORT BRIDGER,    N/A     59  23  25 NW16G23   30.23F
EVANSTON, WY   SUNNY     57  23  26 NW12      30.22S
ROCK SPRINGS,  SUNNY     53  31  42 VRB7G18   30.18S
KEMMERER, WY   SUNNY     55  19  24 NW21G28   30.21S

$$



USA.gov is the U.S. government's official web portal to all federal, state and local government web resources and services.